SCP
3 4 5 4 4 4 4 3 3 3 4 4 3 2 1 1 1 2 2 2 2 2 2 2 2 2 2 2 2 2 2 3 3 3 3 2 2 2 2 2 2 2 2
5 5 5 5 5 4 4 4 4 4 4 4 3 2 1 1 1 2 2 2 2 2 2 2 2 2 2 2 2 2 3 3 3 3 3 3 3 3 2 2 2 2 2
6 6 6 6 6 6 6 6 6 5 4 3 2 2 1 1 1 2 2 2 2 2 3 3 3 3 2 2 2 2 3 3 3 3 3 3 3 3 3 2 2 2 2
7 7 7 6 6 6 7 7 7 6 4 3 2 2 1 1 1 1 1 1 1 2 2 2 3 3 3 2 2 2 3 3 3 3 3 3 3 3 3 3 2 2 2
7 7 7 6 7 7 7 7 7 6 4 3 2 2 1 1 1 1 1 1 1 1 1 1 2 2 2 2 2 2 2 2 2 2 2 2 2 2 2 2 2 2 2
7 6 6 6 7 8 8 8 7 6 4 2 2 1 1 1 1 1 1 1 1 1 0 1 1 1 1 1 1 1 1 2 2 1 1 1 1 1 1 1 2 2 2
8 7 6 6 7 7 7 7 6 4 3 2 1 1 1 1 1 0 0 0 0 0 0 0 0 0 0 0 0 1 1 1 1 1 1 1 1 1 1 1 1 1 1
8 7 6 6 6 6 6 5 4 3 3 2 1 1 1 1 0 0 0 0 0 0 0 0 0 0 0 0 0 0 0 0 0 0 0 0 0 0 1 1 1 1 1
8 7 6 6 5 5 4 3 4 4 3 2 1 1 1 1 1 0 0 0 0 0 0 0 0 0 0 0 0 0 0 0 0 0 0 0 0 0 0 1 1 1 1
7 7 6 5 4 3 2 2 3 3 2 2 1 1 1 1 1 0 0 0 0 0 0 0 0 0 0 0 0 0 0 0 0 0 0 0 0 0 0 0 0 1 1
5 4 4 4 3 2 1 1 1 2 1 1 1 1 0 0 0 0 0 0 0 0 0 0 0 0 0 0 0 0 0 0 0 0 0 0 0 0 0 0 0 0 0
3 2 2 2 2 1 1 1 1 1 0 0 0 0 0 0 0 0 0 0 0 0 0 0 0 0 0 0 0 0 0 0 0 0 0 0 0 0 0 0 0 0 0
2 1 1 0 0 0 0 0 0 0 0 0 0 0 0 0 0 0 0 0 0 0 0 0 0 0 0 0 0 0 0 0 0 0 0 0 0 0 0 0 0 0 0
1 0 0 0 0 0 0 0 0 0 0 0 0 0 0 0 0 0 0 0 0 0 0 0 0 0 0 0 0 0 0 0 0 0 0 0 0 0 0 0 0 0 0
0 0 0 0 0 0 0 0 0 0 0 0 0 0 0 0 0 0 0 0 0 0 0 0 0 0 0 0 0 0 0 0 0 0 0 0 0 0 0 0 0 0 0
0 0 0 0 0 0 0 0 0 0 0 0 0 0 0 0 0 0 0 0 0 0 0 0 0 0 0 0 0 0 0 0 0 0 0 0 0 0 0 0 0 0 0
0 0 0 0 0 0 0 0 0 0 0 0 0 0 0 0 0 0 0 0 0 0 0 0 0 0 0 0 0 0 0 0 0 0 0 0 0 0 0 0 0 0 0
0 0 0 0 0 0 0 0 0 0 0 0 0 0 0 0 0 0 0 0 0 0 0 0 0 0 0 0 0 0 0 0 0 0 0 0 0 0 0 0 0 0 0
0 0 0 0 0 0 0 0 0 0 0 0 0 0 0 0 0 0 0 0 0 0 0 0 0 0 0 0 0 0 0 0 0 0 0 0 0 0 0 0 0 0 0
0 0 0 0 0 0 0 0 0 0 0 0 0 0 0 0 0 0 0 0 0 0 0 0 0 0 0 0 0 0 0 0 0 0 0 0 0 0 0 0 0 0 0
0 0 0 0 0 0 0 0 0 0 0 0 0 0 0 0 0 0 0 0 0 0 0 0 0 0 0 0 0 0 0 0 0 0 0 0 0 0 0 0 0 0 0
0 0 0 0 0 0 0 0 0 0 0 0 0 0 0 0 0 0 0 0 0 0 0 0 0 0 0 0 0 0 0 0 0 0 0 0 0 0 0 0 0 0 0
0 0 0 0 0 0 0 0 0 0 0 0 0 0 0 0 0 0 0 0 0 0 0 0 0 0 0 0 0 0 0 0 0 0 0 0 0 0 0 0 0 0 0
0 0 0 0 0 0 0 0 0 0 0 0 0 0 0 0 0 0 0 0 0 0 0 0 0 0 0 0 0 0 0 0 0 0 0 0 0 0 0 0 0 0 0
0 0 0 0 0 0 0 0 0 0 0 0 0 0 0 0 0 0 0 0 0 0 0 0 0 0 0 0 0 0 0 0 0 0 0 0 0 0 0 0 0 0 0
0 0 0 0 0 0 0 0 0 0 0 0 0 0 0 0 0 0 0 0 0 0 0 0 0 0 0 0 0 0 0 0 0 0 0 0 0 0 0 0 0 0 0
Wind_Speed
2 2 2 3 3 2 3 3 3 2 1 2 2 2 2 4 4 5 5 8 8 7 6 5 3 3 3 4 5 5 6 6 6 6 6 6 6 6 6 6 6 6 6
4 3 2 2 1 1 0 0 1 1 1 2 2 3 3 4 4 4 4 5 6 6 5 3 2 1 2 3 3 4 5 5 6 6 6 6 6 7 7 7 6 7 7
5 4 2 2 1 1 1 2 2 2 1 2 2 2 2 3 4 4 2 2 4 6 6 5 4 2 2 2 2 2 2 2 3 3 4 4 5 5 6 7 7 7 6
5 4 3 2 1 1 1 1 1 2 2 2 3 3 3 2 2 2 2 1 3 4 5 6 5 4 4 3 3 3 3 3 3 3 4 4 4 4 4 5 6 6 7
5 4 3 3 2 2 2 1 2 2 1 2 1 1 2 2 2 1 2 2 1 2 4 6 6 4 3 2 1 1 2 3 4 5 4 5 5 5 5 6 6 7 7
5 4 3 3 3 2 3 2 2 2 1 1 2 2 2 2 2 1 1 1 1 1 1 4 4 3 3 2 2 1 1 2 3 5 5 6 6 6 7 8 8 8 9
4 3 3 3 3 3 3 3 2 2 1 1 1 1 2 2 2 1 0 1 1 1 1 0 1 1 3 5 4 2 1 1 3 5 6 7 8 8 9 10 10 11 11
4 3 3 2 3 3 3 3 2 1 1 1 0 1 2 1 1 2 1 2 1 0 1 2 1 2 2 2 4 6 4 3 3 5 7 9 10 11 11 12 12 13 13
5 4 3 3 3 3 3 3 2 2 2 1 1 0 1 1 2 0 1 2 1 1 2 2 2 2 3 2 3 6 6 4 4 5 7 9 11 13 14 15 15 16 16
6 6 5 5 4 3 4 3 3 2 2 1 1 1 1 1 0 2 2 2 2 3 3 4 3 2 2 2 2 4 7 7 6 7 8 11 13 15 16 17 18 18 19
7 8 7 6 6 5 6 6 5 4 3 2 1 1 1 0 1 1 3 3 2 3 3 3 3 3 3 3 3 4 7 6 5 7 10 12 15 16 18 19 20 20 20
6 8 8 7 6 6 6 5 5 6 4 4 3 2 2 1 1 1 3 4 4 3 3 3 3 4 3 3 4 2 4 5 6 8 11 14 16 18 20 21 21 22 22
6 6 7 6 6 6 6 5 5 5 4 4 3 2 2 1 2 2 3 4 5 4 4 3 3 2 2 0 1 2 2 5 7 9 11 14 17 19 20 21 22 22 23
7 7 7 7 6 5 5 5 4 4 4 3 3 2 2 2 2 2 2 4 5 5 4 5 3 2 2 2 2 1 4 7 8 9 11 14 17 20 21 22 22 22 22
7 7 7 6 6 5 5 4 4 3 2 2 1 1 2 2 2 2 2 3 4 6 5 5 4 3 3 3 1 3 4 8 11 12 13 15 18 20 21 22 22 22 23
8 7 7 6 6 5 5 4 3 3 3 2 2 2 3 3 3 3 3 4 4 5 6 4 4 4 5 7 9 6 6 13 13 15 15 15 17 19 20 22 22 23 23
7 7 6 6 5 5 5 4 4 4 4 4 4 4 4 4 3 4 4 4 4 4 6 6 5 5 5 5 6 6 7 7 7 13 14 14 15 17 19 21 22 22 23
7 7 6 6 6 6 5 5 5 5 4 4 5 5 5 5 5 4 4 5 5 5 5 7 6 6 6 6 7 7 8 9 6 12 15 16 16 16 17 19 20 20 20
7 7 6 6 6 6 6 6 5 5 5 5 5 5 5 5 5 4 5 5 5 6 5 6 7 5 5 6 7 8 8 6 9 11 13 12 13 14 16 17 19 19 19
7 6 6 5 6 7 8 9 8 7 6 6 5 5 5 4 4 4 5 5 5 6 6 6 6 6 6 6 5 5 6 5 6 9 10 11 12 14 14 16 17 18 17
6 5 4 4 4 6 8 8 8 9 8 8 6 6 6 6 6 4 5 5 6 6 7 7 7 7 6 5 5 5 7 6 6 6 5 6 7 6 7 10 13 14 14
5 4 5 5 6 6 7 9 8 8 8 8 7 6 7 6 4 5 9 10 10 9 8 8 8 8 8 7 6 6 6 7 5 4 5 7 6 6 6 6 8 10 11
3 3 3 4 5 6 5 7 10 8 9 7 7 6 7 6 5 5 7 10 11 13 13 10 10 10 9 7 6 7 7 7 7 6 6 7 6 6 6 7 8 9 9
2 2 2 3 3 4 3 6 12 9 7 6 6 6 5 4 5 6 9 9 9 8 8 7 7 8 8 6 5 6 7 7 7 5 4 5 5 6 8 6 7 7 9
2 1 2 3 3 3 1 5 9 8 6 7 7 6 5 4 5 8 9 9 10 8 9 11 10 10 11 11 8 5 6 6 6 5 3 3 5 7 7 5 5 8 10
2 2 2 2 2 2 3 3 8 7 7 8 7 5 4 5 7 9 8 9 10 9 10 11 9 8 7 6 7 5 4 5 5 4 2 3 4 4 5 4 5 5 6
Wind_Direction
180 155 158 159 184 179 181 216 245 244 266 258 272 296 348 24 56 88 118 125 125 130 139 152 172 202 222 232 235 235 233 234 234 233 233 234 237 239 241 243 241 241 242
150 143 144 139 122 78 91 175 321 356 325 339 344 358 17 23 48 64 99 119 119 120 123 132 152 210 245 248 251 252 249 247 248 245 242 238 239 241 242 243 243 244 244
149 146 137 129 125 98 66 50 12 2 340 328 339 354 17 33 40 52 53 111 121 109 104 97 86 63 19 339 318 307 303 291 281 271 263 257 257 252 250 249 248 248 247
144 132 128 135 120 91 71 72 33 20 6 1 13 7 9 44 53 50 34 37 113 121 115 112 101 89 78 63 45 26 13 3 346 323 306 296 288 285 277 268 264 260 254
138 136 140 139 141 128 118 134 100 68 16 7 3 21 7 14 18 19 37 11 47 112 132 128 120 120 117 115 96 51 27 18 11 358 343 341 338 336 326 307 292 282 274
138 138 130 128 137 132 123 119 118 96 65 20 337 353 347 340 333 22 342 3 18 341 104 134 145 150 165 171 165 145 17 10 2 354 345 342 341 339 334 325 313 301 290
120 124 128 136 141 128 131 138 132 131 126 100 37 298 268 234 225 218 273 332 317 360 22 313 147 134 172 191 195 196 212 321 332 333 330 330 327 323 320 318 314 307 299
120 140 137 148 136 133 137 136 129 132 123 102 116 285 286 265 246 222 172 223 251 318 284 273 201 188 201 177 186 205 217 236 283 311 317 318 316 312 307 303 301 299 296
94 83 98 101 106 118 127 128 135 146 141 116 94 119 270 286 344 306 250 248 216 245 276 289 259 227 227 220 188 203 214 224 253 281 297 305 308 306 300 296 292 291 290
85 81 78 79 82 80 89 100 83 81 103 110 80 48 40 61 329 318 295 275 256 247 248 263 280 287 268 259 246 210 205 208 235 269 288 295 297 297 297 295 291 288 286
71 72 72 74 74 72 71 69 70 64 66 76 76 60 32 349 235 255 297 315 293 262 248 240 247 254 255 250 241 214 207 207 232 262 280 289 292 293 293 292 290 288 286
76 75 78 77 78 79 75 73 72 72 67 69 63 52 38 10 335 292 285 299 299 295 278 258 243 238 239 244 258 202 181 208 236 260 276 285 288 290 290 290 289 288 286
89 82 83 79 78 77 77 76 74 69 63 59 51 39 25 343 320 320 308 303 302 301 294 276 262 259 281 307 93 106 247 254 253 259 270 280 284 286 286 286 286 286 286
91 88 84 81 79 78 79 74 75 70 64 49 33 25 347 320 317 312 304 306 305 302 303 308 322 337 353 18 81 318 301 298 288 277 272 275 280 281 282 282 283 283 283
97 91 88 85 81 76 74 74 75 69 64 37 2 357 336 322 320 323 306 296 300 303 302 313 321 344 353 355 11 322 311 305 299 289 276 267 270 274 277 278 279 279 278
88 90 86 84 79 71 60 50 59 54 35 16 353 356 347 338 342 322 317 313 302 295 297 307 315 340 353 332 321 322 304 298 290 282 273 267 265 266 270 274 275 275 275
87 88 88 84 79 71 58 44 33 35 21 11 354 357 352 332 325 333 324 315 314 320 312 310 315 320 327 317 309 300 294 284 279 280 279 275 268 263 264 267 270 271 272
77 78 76 73 67 64 51 38 25 20 6 358 351 343 336 334 343 327 324 321 318 313 303 306 308 307 307 303 293 291 296 294 292 290 283 275 270 266 264 264 264 265 265
71 69 67 64 58 54 49 32 16 2 353 346 341 336 330 324 319 325 323 312 309 309 308 300 299 297 296 295 298 295 293 291 294 296 293 289 284 278 272 268 263 261 258
70 64 60 57 53 47 42 25 7 349 343 335 327 318 310 313 317 329 314 309 315 318 308 299 295 295 292 290 292 298 300 294 296 301 300 299 295 290 281 275 269 267 263
70 63 58 56 58 64 42 26 358 345 338 326 319 312 309 306 295 283 293 310 311 304 302 298 297 297 295 302 305 304 301 300 292 287 298 298 296 291 290 286 282 277 272
57 50 45 45 46 61 55 30 2 338 322 314 314 316 310 300 306 278 276 280 277 281 289 293 294 294 297 302 307 307 303 305 300 296 305 301 298 298 295 289 291 289 281
59 50 41 52 78 82 51 14 352 323 306 306 310 313 318 336 359 352 326 303 286 275 264 265 278 284 294 302 307 305 304 304 299 300 303 297 300 301 300 305 302 291 287
49 43 38 47 86 94 55 2 341 320 313 318 318 317 326 345 28 356 325 313 306 305 299 287 274 282 293 301 302 296 293 295 292 295 306 295 304 307 307 301 295 292 294
23 13 38 32 67 113 92 2 347 324 327 332 327 337 345 3 19 348 325 315 314 316 319 321 306 294 291 287 281 291 296 302 306 308 319 300 303 310 302 298 306 309 304
352 358 27 18 36 90 127 10 345 335 340 335 330 343 9 359 339 332 323 314 312 318 323 318 314 309 297 284 272 260 278 296 304 301 329 315 298 314 306 301 312 312 310